星链-2111 (STARLINK-2111 )

导读

STARLINK-2111是美国太空探索技术公司(SpaceX)于2021年1月20日发射的星链(Starlink)系列卫星,星链项目旨在通过近地轨道卫星星座,为全球提供高速低延迟宽带互联网服务,尤其覆盖偏远和农村地区。该卫星属于SpaceX大规模星座组网计划的一部分,助力星链实现全球互联网覆盖的战略目标,推动太空互联网基础设施建设。

Basic Information
目录编号:
47390
目录名称:
STARLINK-2111
国际标识:
2021-005AT
轨道中心:
EARTH
卫星名称:
星链-2111
卫星全名:
星链-2111 (STARLINK-2111 )
卫星状态:
在轨 (已飞行1975 天)
发射日期:
2021-01-20 UTC
国别 :
美国 (US)
星等 :
--
Orbit Information
数据来源 国际轨道数据 AOE轨道数据
星历时间 2026-06-18T01:16:35+0800
1天前
查看轨道信息
2026-06-14T07:00:00+0800
4天前
查看轨道信息
半长轴 6848.9km 6848.846km
偏心率 0.000169 0.0001135
轨道倾角 53.160° 53.160°
近地点辐角 153.318° 54.275°
升交点赤经 320.986° 338.497°
平近点角 206.791° 72.849°
近地点 469.605km 469.931km
远地点 471.921km 471.487km
周期 94.014分钟 94.013分钟
每日圈数 15.316926 15.317107
Detailed Information
固有亮度:
5
最大亮度:
2.5
卫星平台:
Starlink V1.0
覆盖范围:
全球
运营商:
太空探索技术公司
运营商所在国:
美国
制造商(研发单位):
太空探索技术公司
制造商所在国:
美国
使用方式:
暂无
Satellite Introduction
星链(Starlink)计划是由太空探索技术公司(SpaceX)提出的一个巨型低轨卫星互联网星座项目,计划在2019年至2024年间在太空搭建由约1.2万颗卫星组成的“星链”网络,其中1584颗将部署在地球上空550千米处的近地轨道,并从2020年开始工作。该卫星仍在工作。
2D Orbit Map
3D Orbit Map
Orbit Altitude Analysis Chart
Orbit Inclination Analysis Chart
Orbit Comprehensive Analysis Chart
View Comprehensive Chart